Location: Austin
(30.3000°N, 97.7500°W)
Time: 05:56:27
(UTC-05:00)

Cosmos 1943 Rocket - Pass Details

Date: 16 June 2025
Orbit: 811 x 843 km, 71.0° (Epoch: 07 July)

Event Time Altitude Azimuth Distance (km) Brightness Sun altitude
Exits shadow 01:44:28 15° 64° (ENE) 2,072 4.5 -36.3°
Drops below altitude 10° 01:45:45 10° 53° (NE) 2,398 4.9 -36.2°
Sets 01:48:42 0° 38° (NE) 3,336 6.0 -36.2°
